Notices

What's New in latest Release from April 7th, 2021:

- Updated Glossary, including Speed of Maximum Gust, and Total Hourly Precipitation

- Updated national and regional climate services offices contacts and prices information

- Addition of station inventory lists for 1981-2010, 1971-2000, and 1961-1990 Normals.

If you haven't already, please take our survey and provide feedback about our website: https://eccc.sondage-survey.ca/f/LanguageSelection.aspx?s=442ca660-fcf1-47c0-95a9-59707d6fd709

Hourly Data Report for October 15, 2015

IQALUIT CLIMATE
NUNAVUT

63°44'50.000" N
68°32'40.000" W
33.50 m
2402592
71321
XFB

Download Data

Hourly Data (October 2015)
Hourly Data Report for October 15, 2015
TIME
LST
Temp Definition
°C
Dew Point Definition
°C
Rel Hum Definition
%
Precip. Amount Definition
mm

Wind Dir Definition
10's deg

Wind Spd Definition
km/h
Visibility Definition
km
Stn Press Definition
kPa
Hmdx Definition


Wind Chill Definition


Weather Definition


00:00 -6.5 -9.5 79 0.0 31 20   99.62   -13 LegendNANA
01:00 -6.6 -10.4 74 0.0 30 22   99.61   -14 LegendNANA
02:00 -6.7 -10.5 74 0.0 31 17   99.62   -13 LegendNANA
03:00 -6.6 -10.2 76 0.0 31 18   99.65   -13 LegendNANA
04:00 -6.2 -9.3 79 0.0 33 6   99.68   -9 LegendNANA
05:00 -6.0 -9.3 77 0.0 21 2   99.69   -7 LegendNANA
06:00 -5.6 -8.7 78 0.0   0   99.71     LegendNANA
07:00 -5.1 -8.2 79 0.0 15 5   99.73   -7 LegendNANA
08:00 -4.5 -7.7 78 0.0 16 5   99.77   -7 LegendNANA
09:00 -3.8 -7.1 78 0.0 20 3   99.80   -5 LegendNANA
10:00 -2.7 -6.2 77 0.0 29 9   99.86   -6 LegendNANA
11:00 -2.0 -6.6 71 0.0 31 15   99.87   -7 LegendNANA
12:00 -1.9 -8.0 63 0.0 31 26   99.89   -8 LegendNANA
13:00 -2.3 -7.0 70 0.0 31 21   99.97   -8 LegendNANA
14:00 -3.0 -7.0 74 0.0 31 23   100.02   -9 LegendNANA
15:00 -3.5 -6.8 78 0.0 32 21   100.08   -10 LegendNANA
16:00 -3.7 -6.6 80 0.0 32 22   100.15   -10 LegendNANA
17:00 -4.1 -8.0 74 0.0 31 16   100.20   -10 LegendNANA
18:00 -4.7 -7.9 78 0.0 33 9   100.29   -9 LegendNANA
19:00 -4.9 -8.0 79 0.0 32 11   100.34   -9 LegendNANA
20:00 -4.8 -7.3 83 0.0 33 12   100.35   -10 LegendNANA
21:00 -4.5 -7.2 81 0.0 1 10   100.35   -9 LegendNANA
22:00 -4.3 -7.6 78 0.0 33 8   100.36   -8 LegendNANA
23:00 -4.2 -7.6 78 0.0 32 14   100.36   -9 LegendNANA

Notes on Data Quality.

Legend

  • E = Estimated
  • M = Missing
  • NA = Not Available*
  • [empty] = Indicates an unobserved value
Date modified: